Temp
25 24 24 23 23 22 21 20 20 19 19 19 20 20 19 19 18 18 18 17 17 17 17 17 17 17 17 18 18 17 17 17 17 18 18 18 18 18 18 18 18 18 18
27 25 24 24 23 21 21 20 20 19 19 19 19 19 18 18 18 18 18 18 17 18 18 17 17 18 18 18 17 17 17 18 17 18 18 18 18 18 18 18 18 18 18
27 26 24 24 22 21 21 20 20 19 19 19 19 19 18 18 18 18 18 18 17 18 17 17 17 17 17 18 18 18 18 18 18 17 17 17 18 18 18 18 18 18 18
27 26 24 23 22 21 21 20 20 19 19 19 19 19 19 18 18 18 18 18 18 18 17 17 18 17 18 17 17 17 17 17 17 17 17 17 17 17 17 17 18 18 18
26 25 24 23 22 21 20 20 20 19 19 19 18 18 18 18 18 18 18 18 18 18 18 18 18 18 18 17 17 17 17 17 17 17 17 17 17 17 17 18 18 18 18
26 25 24 23 22 21 20 20 20 19 19 19 19 18 18 18 18 18 18 19 19 19 19 18 18 18 18 18 18 17 17 17 17 17 17 17 17 17 17 17 18 18 17
26 25 24 23 22 22 21 20 20 20 19 19 19 19 19 19 18 18 18 18 18 19 18 18 18 18 18 18 18 18 17 16 16 16 16 17 17 17 17 18 18 18 18
25 25 24 23 23 22 21 21 20 20 20 20 20 20 19 19 20 21 20 19 18 18 18 18 18 18 17 17 17 15 16 16 16 16 16 16 16 16 16 16 17 17 16
24 24 24 24 23 22 21 21 21 20 20 20 19 19 19 20 19 18 19 19 19 19 18 18 18 18 17 17 17 16 15 16 16 16 15 15 15 15 16 16 16 16 16
24 24 23 23 23 22 22 21 21 20 20 20 19 19 19 19 18 18 18 18 19 19 19 18 17 17 17 17 17 17 16 16 15 15 15 15 15 15 15 16 16 16 15
24 23 22 22 22 22 21 20 20 20 19 19 19 19 19 19 18 18 18 18 19 21 19 18 17 17 17 17 17 17 17 16 16 16 15 15 15 15 16 16 16 15 16
23 23 23 23 22 21 20 20 20 19 19 19 19 19 19 19 18 18 18 18 18 20 20 19 18 17 17 17 17 18 18 16 16 16 16 16 15 15 15 15 16 16 17
23 23 22 22 21 21 20 20 20 20 20 20 19 20 20 19 19 18 18 17 18 18 20 20 18 17 18 17 18 18 17 17 17 16 17 16 16 15 15 15 15 16 16
23 22 22 21 21 20 20 20 19 19 19 19 18 19 19 18 18 18 18 18 19 18 18 18 18 17 18 18 17 17 17 17 17 17 17 16 15 15 16 16 16 15 15
22 22 21 20 20 20 20 20 18 18 18 17 17 17 17 16 17 17 17 18 18 17 17 17 17 17 18 18 17 17 17 17 17 16 17 16 15 15 15 15 15 15 16
21 20 20 20 19 19 18 18 18 18 17 17 16 16 15 16 16 17 16 16 17 17 16 16 17 17 18 18 17 16 16 16 17 16 16 16 15 15 15 15 15 15 16
21 20 20 19 19 18 18 17 17 16 16 16 16 16 15 16 15 15 15 15 15 15 16 17 16 17 17 17 15 14 14 15 15 16 15 15 15 14 14 14 14 15 15
18 18 18 18 17 17 17 16 16 16 16 15 15 15 15 14 14 14 14 14 15 15 16 16 15 15 15 14 14 14 14 14 14 15 15 14 14 14 14 14 14 14 14
17 17 17 17 16 16 15 15 15 15 16 15 15 14 14 14 14 14 14 14 14 14 14 15 14 14 14 14 14 14 14 14 14 14 14 14 14 14 14 14 13 13 13
16 16 16 16 15 15 15 15 16 15 15 14 14 14 15 15 15 15 15 15 15 14 13 14 14 14 13 13 13 13 13 13 13 13 13 13 14 13 13 13 12 13 13
16 16 15 15 15 15 15 15 15 14 14 14 14 14 14 14 14 14 15 15 15 15 14 13 12 13 13 13 13 13 13 13 12 12 13 13 12 12 12 12 12 12 11
16 15 15 15 15 15 15 15 14 14 15 14 14 14 14 14 14 14 14 14 14 14 14 14 13 12 12 12 13 13 12 12 12 12 12 11 12 12 11 12 11 11 12
16 16 15 15 15 15 14 14 14 14 14 14 14 14 13 13 13 13 13 13 13 13 13 13 13 13 12 12 12 12 11 11 11 11 11 11 11 11 11 11 11 11 11
16 16 15 15 15 15 15 14 14 13 13 13 13 13 13 12 13 13 13 13 13 12 12 13 12 12 12 12 12 12 11 11 11 11 10 10 10 10 10 10 10 10 10
16 16 16 15 15 15 15 14 14 14 14 14 14 14 14 14 14 14 13 13 13 13 13 12 12 12 12 12 12 12 11 11 10 10 10 10 10 10 10 10 10 10 9
16 16 16 15 15 15 15 15 14 14 14 14 14 14 14 14 13 13 13 13 13 13 13 13 13 12 12 12 12 11 11 11 11 11 10 10 10 10 10 10 10 9 9
Height
1490 1493 1495 1499 1502 1507 1509 1512 1515 1516 1518 1517 1520 1520 1523 1525 1526 1527 1528 1529 1531 1533 1534 1534 1535 1537 1537 1539 1540 1540 1540 1542 1540 1541 1543 1545 1546 1548 1550 1553 1557 1561 1565
1486 1489 1493 1496 1500 1502 1505 1508 1511 1511 1513 1514 1515 1517 1517 1519 1521 1522 1524 1525 1527 1528 1530 1531 1532 1534 1534 1534 1534 1534 1535 1536 1536 1535 1537 1540 1542 1542 1546 1548 1551 1555 1559
1483 1487 1490 1494 1496 1498 1500 1503 1505 1506 1507 1508 1510 1512 1513 1515 1516 1518 1520 1522 1524 1525 1527 1528 1529 1529 1529 1529 1529 1528 1528 1529 1530 1531 1531 1534 1537 1539 1541 1543 1546 1550 1554
1481 1484 1488 1491 1492 1494 1496 1498 1500 1501 1502 1503 1504 1506 1508 1510 1512 1514 1516 1518 1520 1522 1523 1524 1525 1525 1523 1522 1520 1519 1520 1521 1522 1524 1523 1529 1531 1534 1536 1538 1541 1543 1546
1479 1482 1485 1487 1490 1491 1492 1494 1496 1497 1498 1500 1501 1502 1503 1504 1506 1508 1510 1513 1516 1518 1519 1520 1520 1520 1518 1515 1512 1511 1512 1513 1515 1517 1519 1523 1525 1528 1529 1532 1536 1538 1540
1476 1480 1482 1484 1486 1488 1490 1491 1492 1494 1494 1495 1497 1499 1501 1503 1505 1506 1507 1508 1509 1511 1514 1516 1517 1517 1514 1511 1509 1508 1509 1510 1510 1510 1514 1517 1520 1523 1527 1529 1532 1532 1534
1472 1476 1479 1481 1482 1485 1487 1489 1489 1490 1492 1493 1495 1496 1498 1499 1501 1503 1505 1506 1507 1508 1509 1510 1512 1512 1511 1509 1506 1505 1506 1508 1509 1510 1511 1514 1516 1518 1522 1524 1524 1525 1526
1468 1471 1475 1477 1479 1481 1483 1485 1486 1488 1488 1489 1491 1492 1493 1495 1495 1493 1497 1501 1503 1505 1506 1506 1507 1508 1509 1508 1507 1506 1507 1507 1508 1508 1509 1511 1512 1516 1518 1519 1519 1520 1521
1465 1468 1471 1474 1476 1478 1479 1482 1484 1485 1486 1487 1488 1489 1490 1493 1495 1497 1495 1492 1494 1498 1500 1502 1504 1505 1506 1506 1507 1507 1507 1507 1507 1507 1508 1508 1508 1510 1512 1513 1515 1516 1515
1461 1464 1468 1471 1472 1474 1476 1479 1482 1483 1484 1484 1485 1487 1489 1490 1492 1493 1495 1494 1493 1491 1495 1498 1500 1501 1503 1504 1504 1505 1506 1506 1506 1507 1507 1508 1509 1509 1509 1510 1509 1506 1512
1458 1461 1464 1468 1469 1471 1473 1475 1478 1480 1480 1481 1482 1483 1485 1485 1487 1488 1490 1490 1490 1485 1489 1491 1493 1497 1499 1501 1502 1503 1503 1505 1504 1504 1504 1504 1505 1507 1507 1508 1506 1508 1509
1455 1458 1460 1464 1466 1468 1470 1471 1473 1475 1476 1477 1478 1478 1479 1480 1482 1483 1485 1486 1486 1484 1482 1484 1487 1489 1493 1496 1497 1499 1501 1501 1501 1501 1501 1502 1503 1504 1505 1505 1505 1504 1505
1451 1455 1459 1461 1463 1465 1467 1469 1469 1470 1471 1473 1474 1475 1475 1476 1477 1478 1479 1480 1480 1479 1478 1477 1481 1484 1488 1491 1492 1494 1496 1496 1497 1497 1497 1498 1499 1500 1501 1501 1501 1500 1500
1448 1451 1454 1457 1459 1462 1463 1465 1466 1467 1468 1468 1469 1469 1469 1470 1472 1474 1475 1475 1475 1474 1474 1474 1476 1480 1484 1486 1487 1489 1489 1491 1493 1494 1494 1495 1495 1495 1496 1497 1497 1497 1497
1442 1447 1449 1452 1455 1458 1459 1460 1460 1461 1462 1462 1462 1463 1463 1464 1467 1469 1470 1470 1470 1470 1470 1471 1472 1474 1477 1478 1481 1482 1484 1485 1487 1488 1489 1490 1491 1491 1491 1492 1492 1494 1494
1438 1443 1446 1448 1451 1453 1455 1455 1456 1457 1457 1456 1457 1458 1458 1460 1462 1464 1465 1466 1466 1466 1465 1466 1467 1469 1469 1470 1471 1473 1475 1478 1479 1481 1483 1484 1485 1485 1485 1486 1487 1487 1489
1436 1439 1442 1445 1448 1451 1452 1453 1453 1455 1456 1455 1454 1454 1455 1456 1457 1459 1460 1461 1462 1462 1461 1462 1463 1463 1464 1464 1462 1463 1467 1468 1472 1475 1476 1478 1478 1479 1478 1479 1480 1481 1483
1440 1442 1442 1443 1447 1450 1451 1452 1452 1452 1454 1455 1454 1454 1454 1454 1454 1455 1456 1456 1456 1456 1456 1455 1455 1455 1457 1458 1459 1459 1458 1460 1466 1469 1470 1471 1472 1472 1472 1473 1473 1475 1477
1442 1442 1442 1444 1445 1450 1454 1454 1453 1452 1452 1454 1455 1454 1453 1453 1452 1452 1452 1452 1451 1451 1450 1450 1451 1452 1453 1454 1454 1456 1456 1458 1460 1463 1464 1465 1467 1467 1467 1469 1470 1472 1472
1442 1443 1445 1444 1449 1450 1453 1455 1454 1455 1454 1454 1454 1453 1453 1452 1451 1449 1448 1448 1448 1447 1447 1447 1447 1448 1448 1449 1450 1452 1453 1454 1455 1456 1455 1458 1459 1461 1462 1463 1464 1466 1467
1441 1446 1446 1449 1446 1451 1453 1454 1455 1454 1454 1455 1455 1454 1453 1453 1452 1450 1448 1447 1447 1445 1443 1443 1444 1445 1445 1445 1446 1447 1448 1448 1448 1450 1450 1451 1452 1453 1454 1457 1458 1459 1461
1446 1448 1445 1449 1450 1453 1453 1453 1454 1454 1454 1455 1456 1455 1454 1454 1454 1451 1448 1447 1446 1445 1443 1442 1442 1441 1441 1442 1442 1443 1443 1444 1445 1444 1443 1444 1446 1447 1451 1454 1456 1456 1457
1447 1447 1445 1447 1451 1456 1453 1453 1454 1454 1455 1455 1456 1455 1454 1454 1454 1453 1451 1450 1448 1447 1445 1444 1443 1442 1441 1440 1440 1441 1442 1442 1442 1442 1442 1441 1443 1446 1449 1450 1452 1453 1455
1446 1446 1445 1450 1456 1456 1455 1456 1456 1455 1455 1455 1456 1455 1454 1454 1455 1455 1453 1452 1450 1449 1447 1445 1444 1443 1442 1442 1441 1441 1441 1441 1441 1441 1441 1442 1444 1445 1447 1448 1449 1450 1451
1445 1446 1450 1454 1454 1455 1459 1461 1460 1460 1458 1458 1458 1458 1458 1457 1456 1456 1455 1454 1452 1450 1447 1445 1444 1443 1442 1442 1441 1441 1440 1439 1439 1439 1439 1439 1440 1442 1443 1444 1444 1444 1445
1446 1447 1451 1454 1457 1458 1461 1461 1461 1462 1461 1461 1460 1459 1459 1458 1457 1456 1455 1454 1453 1451 1449 1447 1446 1444 1443 1442 1441 1440 1438 1438 1437 1436 1436 1435 1436 1436 1437 1437 1437 1437 1437
Wind_Speed
35 35 36 32 31 29 26 24 22 21 24 26 21 18 17 16 16 15 15 18 21 22 21 21 21 21 23 26 25 27 27 28 28 27 25 19 21 23 21 29 32 31 30
31 30 27 25 23 23 21 20 20 20 19 19 16 14 13 14 14 14 14 14 14 15 14 17 19 17 21 22 26 28 28 28 28 28 26 26 24 24 22 23 30 31 31
22 25 22 18 17 18 18 18 18 17 18 16 15 14 13 13 13 13 12 13 13 13 14 16 16 18 21 25 27 30 31 32 30 29 28 26 25 22 24 22 26 29 31
21 20 17 16 15 16 13 14 14 13 14 17 15 13 13 13 11 10 11 11 12 12 13 14 15 18 22 23 27 31 31 30 32 33 31 29 29 27 27 29 26 30 35
22 18 15 11 12 13 14 13 12 11 12 13 14 14 14 14 13 11 11 11 12 12 12 12 14 17 19 22 21 20 25 28 28 29 32 30 29 30 31 27 29 30 30
21 16 13 11 13 14 15 14 14 14 13 14 14 15 15 14 12 11 11 11 11 11 9 9 11 14 16 16 14 14 15 19 25 27 28 29 28 31 28 34 28 28 34
20 15 15 13 12 14 13 15 15 16 14 14 13 14 16 15 14 13 11 12 12 11 10 10 11 13 16 16 11 10 11 13 16 18 22 26 23 19 21 23 25 26 34
21 18 17 17 15 14 16 16 14 16 15 16 17 16 17 18 18 17 14 13 13 13 14 14 12 11 13 14 9 4 5 10 13 17 19 20 20 21 17 19 19 19 25
20 18 18 18 18 17 18 19 16 17 18 17 18 18 19 17 17 17 16 14 12 12 12 14 13 13 12 12 12 8 8 8 9 11 16 15 17 18 19 20 22 26 19
19 17 17 17 18 19 19 19 19 18 19 18 17 19 19 18 16 18 18 18 15 11 11 12 14 15 15 15 13 12 14 13 16 18 20 18 14 12 15 16 15 11 20
12 13 14 14 14 15 16 18 19 19 19 20 19 19 20 21 22 22 21 23 21 15 15 13 13 16 18 18 17 16 14 11 13 14 14 14 18 17 15 13 14 13 12
16 15 14 12 11 11 13 14 17 18 20 21 22 23 24 23 24 25 25 24 20 17 17 14 15 14 15 18 20 19 15 14 16 15 15 16 17 17 16 15 16 18 19
19 18 18 17 16 14 12 14 16 17 19 22 24 26 26 24 23 23 22 22 25 24 24 24 17 15 17 18 20 19 19 20 17 18 16 15 15 14 17 19 19 21 24
19 20 18 20 18 15 15 16 17 20 21 22 23 26 30 27 22 19 20 19 20 19 19 19 15 15 16 19 22 19 23 23 22 21 18 15 16 18 18 18 20 18 18
17 19 19 15 18 18 18 18 18 19 20 21 23 23 22 23 17 16 18 19 18 21 20 23 26 21 19 22 26 24 25 25 25 26 25 19 19 19 20 19 20 21 22
15 16 16 17 16 15 13 12 12 13 14 14 11 12 14 16 17 19 18 19 17 18 21 25 28 29 29 32 37 33 26 22 25 26 26 24 22 22 22 21 21 21 22
15 16 14 12 11 10 10 9 6 5 5 5 6 10 15 17 17 16 17 20 21 24 26 27 29 31 32 28 24 23 24 25 20 24 22 22 24 24 24 24 22 20 20
11 9 9 8 8 9 8 7 4 3 3 3 5 4 5 6 10 13 16 19 22 23 24 23 23 24 20 15 17 18 17 14 18 20 20 20 19 18 19 18 17 17 19
9 8 6 4 4 4 4 4 4 3 2 3 3 6 7 6 8 11 13 15 16 16 16 15 14 13 13 12 12 12 14 15 16 18 19 19 20 20 18 16 16 18 20
9 6 6 8 6 5 1 3 3 2 3 4 3 3 4 4 4 5 6 8 11 14 14 14 13 14 13 13 14 14 15 19 19 22 23 23 23 25 25 21 19 17 17
9 7 8 7 8 3 2 4 4 3 1 2 4 5 6 7 6 5 4 5 8 8 8 12 13 13 13 13 14 15 15 15 16 18 20 21 22 24 29 28 23 20 19
5 5 3 3 5 1 3 3 2 3 3 3 3 3 6 6 7 9 9 8 7 7 7 6 5 8 10 12 14 16 15 15 13 13 16 18 17 22 19 13 13 14 16
8 5 8 8 5 3 2 1 3 3 3 1 3 3 3 3 5 7 8 9 10 10 9 8 7 6 4 4 5 7 7 6 3 2 5 4 8 6 11 10 12 13 13
12 14 13 12 10 12 12 9 7 7 4 3 3 2 1 1 4 7 9 11 11 8 7 8 8 9 8 6 4 4 6 6 6 7 7 7 10 10 10 12 13 14 16
9 8 9 6 8 9 10 10 12 11 12 11 12 12 11 9 9 7 9 11 13 13 10 7 6 7 8 8 8 8 7 8 8 9 9 11 12 14 16 18 20 21 20
10 13 12 10 11 11 9 7 5 7 6 6 6 6 5 2 1 2 4 6 8 11 11 9 7 8 9 9 9 10 10 11 11 11 13 16 19 21 23 24 24 24 24
Wind_Direction
246 246 244 246 248 248 251 253 255 251 251 255 264 260 256 252 260 265 253 248 249 254 255 256 256 262 256 250 251 253 258 252 257 262 260 259 256 248 244 237 233 231 229
251 252 250 248 247 244 241 241 238 241 248 250 256 257 255 259 256 251 255 251 251 255 250 254 260 262 263 257 254 253 252 252 254 259 258 257 260 244 244 240 232 233 230
250 253 248 245 233 230 228 229 234 237 237 237 239 242 248 248 247 246 245 240 246 249 251 259 266 275 272 269 265 261 257 256 254 252 254 255 246 240 240 241 230 232 233
243 243 236 227 229 218 218 223 232 235 235 229 230 226 225 225 229 232 233 238 247 253 255 266 277 285 290 288 276 261 255 258 252 244 242 243 241 242 244 236 234 231 234
229 225 220 215 217 212 218 225 230 234 236 226 226 222 214 217 221 219 221 232 241 249 258 267 282 296 301 295 284 269 255 252 247 236 234 236 242 239 235 236 240 241 241
213 216 202 204 210 214 221 229 233 233 229 223 215 212 215 220 221 221 220 223 230 241 243 266 289 301 310 308 280 266 255 255 247 235 232 235 242 240 249 242 247 246 239
209 209 206 210 213 215 221 233 240 233 227 221 215 214 215 214 214 217 225 235 237 232 240 262 289 302 315 325 296 260 251 250 244 235 235 241 245 249 243 239 246 252 236
209 210 212 218 219 219 223 233 240 227 226 223 220 221 221 216 208 208 216 225 237 251 260 265 278 293 309 315 325 290 266 248 249 247 238 242 238 236 238 241 248 250 234
216 215 218 226 229 229 231 234 237 234 232 231 229 230 227 224 224 229 223 217 227 251 269 264 273 285 291 295 301 288 252 239 250 256 252 243 242 241 243 248 245 234 224
220 225 225 230 238 241 244 242 244 243 241 241 240 238 240 242 243 235 237 238 233 229 253 265 273 285 278 282 274 276 272 271 260 255 257 259 239 238 242 246 253 227 225
197 203 214 225 237 247 252 249 250 251 246 241 241 241 244 243 246 243 244 245 239 240 236 248 270 286 280 273 274 266 269 260 262 260 254 244 238 243 249 255 249 246 239
190 192 195 206 227 240 246 248 252 250 244 244 244 244 246 252 254 253 250 250 250 254 248 261 261 264 263 263 270 273 263 255 257 254 252 247 244 248 253 252 254 255 252
207 218 224 226 228 233 238 244 245 248 254 252 252 254 254 256 256 251 248 247 260 271 283 263 258 263 257 261 264 264 268 258 251 254 253 252 254 257 257 257 258 259 255
219 226 228 225 223 236 245 248 254 258 259 260 264 261 260 253 255 255 258 264 270 262 256 249 256 266 264 267 262 266 260 262 263 262 260 262 258 258 258 259 258 259 262
215 222 227 217 229 238 245 254 246 254 257 256 264 266 269 254 255 254 258 253 251 253 250 246 245 254 272 282 280 269 261 257 256 258 258 259 262 264 264 263 261 258 260
204 210 211 223 230 228 230 235 243 252 257 262 263 256 249 250 253 256 247 244 250 253 249 245 250 254 259 278 281 267 255 251 254 256 253 258 264 264 263 263 264 260 261
192 194 200 208 211 215 215 221 229 255 282 301 287 270 265 265 261 249 243 250 253 254 254 256 256 262 275 277 276 246 248 248 255 257 250 255 264 266 264 262 259 258 262
179 183 188 197 212 218 217 217 235 257 271 307 322 303 304 287 263 262 263 261 263 263 263 265 266 268 260 261 265 266 263 248 247 248 253 256 259 257 265 258 252 257 260
156 151 152 165 183 224 245 210 235 271 246 250 292 300 298 285 279 272 270 270 272 273 269 261 253 257 262 266 265 255 243 244 246 251 254 252 254 255 259 260 257 262 259
131 130 140 137 136 115 154 231 235 278 282 288 315 344 360 352 343 327 307 297 288 275 263 260 259 262 263 268 264 256 255 251 257 267 266 259 258 251 246 243 241 248 248
115 120 135 136 128 118 151 207 237 213 189 20 47 45 26 10 4 358 344 320 317 315 297 262 256 262 265 268 267 266 267 273 272 273 264 260 262 255 237 246 260 270 264
111 114 111 162 153 227 199 226 218 217 226 246 289 320 347 10 18 28 27 12 7 13 13 360 310 266 266 267 266 269 272 282 282 278 266 253 258 253 239 252 261 261 259
122 110 93 112 114 116 114 170 215 247 255 255 278 312 326 337 5 18 24 29 34 34 29 24 19 12 343 304 275 255 233 218 231 329 11 252 224 249 258 251 250 257 268
127 103 99 107 98 82 82 89 85 81 84 107 67 18 351 89 37 34 38 41 24 11 16 29 34 32 21 7 343 291 272 267 268 265 269 257 260 255 249 256 266 270 272
136 125 123 139 137 111 100 102 96 88 89 84 78 70 65 62 60 62 36 25 18 9 1 345 340 352 348 351 356 342 308 287 274 265 258 254 251 252 257 265 272 276 275
159 143 134 127 126 119 109 97 113 119 75 88 71 67 40 13 359 353 342 344 348 354 348 352 347 338 327 316 308 300 287 279 276 275 269 265 263 262 263 265 268 271 273